| time (UTC) | temp F | wind direction | speed MPH | gust MPH | rain 1hr in | rain 24hr in | rain mn in | humidity % | barometer mb |
| 20260506154604 | 49 | 42 | 0.0 | 3.0 | 0.00 | 0.11 | 0.00 | 57 | 1015.2 |
| 20260506153059 | 49 | 34 | 0.0 | 4.0 | 0.00 | 0.11 | 0.00 | 57 | 1015.1 |
| 20260506151553 | 48 | 26 | 1.0 | 3.0 | 0.00 | 0.11 | 0.00 | 55 | 1015.1 |
| 20260506150051 | 48 | 83 | 0.0 | 2.0 | 0.00 | 0.11 | 0.00 | 58 | 1015.2 |
| 20260506144547 | 47 | 84 | 0.0 | 0.0 | 0.00 | 0.14 | 0.00 | 59 | 1015.2 |
| 20260506143045 | 46 | 337 | 0.0 | 1.0 | 0.00 | 0.14 | 0.00 | 56 | 1015.1 |
| 20260506141537 | 43 | 339 | 0.0 | 1.0 | 0.00 | 0.14 | 0.00 | 58 | 1015.0 |
| 20260506140033 | 42 | 339 | 0.0 | 1.0 | 0.00 | 0.14 | 0.00 | 61 | 1014.9 |
| 20260506134529 | 42 | 310 | 0.0 | 1.0 | 0.00 | 0.18 | 0.00 | 62 | 1014.8 |
| 20260506133025 | 41 | 296 | 1.0 | 3.0 | 0.00 | 0.18 | 0.00 | 60 | 1014.6 |
| 20260506131619 | 40 | 309 | 0.0 | 0.0 | 0.00 | 0.18 | 0.00 | 69 | 1014.4 |
| 20260506130016 | 40 | 201 | 0.0 | 2.0 | 0.00 | 0.18 | 0.00 | 69 | 1014.3 |
| 20260506124514 | 39 | 115 | 1.0 | 2.0 | 0.00 | 0.22 | 0.00 | 72 | 1014.0 |
| 20260506123010 | 39 | 115 | 0.0 | 3.0 | 0.00 | 0.22 | 0.00 | 70 | 1013.9 |
| 20260506121510 | 39 | 125 | 1.0 | 2.0 | 0.00 | 0.22 | 0.00 | 74 | 1013.6 |
| 20260506120006 | 38 | 126 | 1.0 | 3.0 | 0.00 | 0.22 | 0.00 | 77 | 1013.6 |
| 20260506114503 | 38 | 121 | 0.0 | 2.0 | 0.00 | 0.22 | 0.00 | 77 | 1013.5 |
| 20260506113002 | 39 | 86 | 0.0 | 1.0 | 0.00 | 0.22 | 0.00 | 74 | 1013.6 |
| 20260506111558 | 39 | 171 | 0.0 | 2.0 | 0.00 | 0.22 | 0.00 | 78 | 1013.5 |
| 20260506110100 | 38 | 48 | 0.0 | 1.0 | 0.00 | 0.22 | 0.00 | 86 | 1013.4 |
| 20260506104555 | 38 | 34 | 0.0 | 1.0 | 0.00 | 0.22 | 0.00 | 93 | 1013.4 |
| 20260506103055 | 37 | 34 | 0.0 | 1.0 | 0.00 | 0.22 | 0.00 | 96 | 1013.4 |
| 20260506101552 | 37 | 300 | 0.0 | 2.0 | 0.00 | 0.22 | 0.00 | 96 | 1013.3 |
| 20260506100059 | 37 | 299 | 1.0 | 2.0 | 0.00 | 0.22 | 0.00 | 97 | 1013.3 |
| 20260506094536 | 36 | 241 | 0.0 | 2.0 | 0.00 | 0.22 | 0.00 | 97 | 1013.4 |
| 20260506093040 | 35 | 184 | 0.0 | 3.0 | 0.00 | 0.22 | 0.00 | 97 | 1013.4 |
| 20260506091533 | 35 | 110 | 1.0 | 5.0 | 0.00 | 0.22 | 0.00 | 97 | 1013.4 |
| 20260506090026 | 35 | 135 | 0.0 | 1.0 | 0.00 | 0.22 | 0.00 | 97 | 1013.5 |
| 20260506084523 | 33 | 150 | 0.0 | 0.0 | 0.00 | 0.22 | 0.00 | 97 | 1013.6 |
| 20260506083019 | 34 | 126 | 1.0 | 4.0 | 0.00 | 0.22 | 0.00 | 97 | 1013.6 |
| 20260506081514 | 34 | 122 | 1.0 | 7.0 | 0.00 | 0.22 | 0.00 | 97 | 1013.5 |
| 20260506073013 | 34 | 105 | 3.0 | 8.0 | 0.00 | 0.24 | 0.00 | 97 | 1013.7 |
| 20260506071501 | 35 | 107 | 2.0 | 8.0 | 0.00 | 0.24 | 0.00 | 97 | 1013.6 |
| 20260506061549 | 35 | 98 | 4.0 | 12.0 | 0.00 | 0.24 | 0.24 | 97 | 1013.2 |
| 20260506044615 | 35 | 108 | 4.0 | 11.0 | 0.00 | 0.24 | 0.24 | 97 | 1012.6 |
| 20260506043033 | 35 | 101 | 3.0 | 9.0 | 0.00 | 0.24 | 0.24 | 97 | 1012.6 |
| 20260506041529 | 35 | 97 | 4.0 | 10.0 | 0.00 | 0.24 | 0.24 | 97 | 1012.3 |
| 20260506040028 | 35 | 106 | 1.0 | 7.0 | 0.00 | 0.24 | 0.24 | 97 | 1012.2 |
| 20260506034544 | 35 | 115 | 3.0 | 9.0 | 0.00 | 0.24 | 0.24 | 97 | 1011.9 |
| 20260506033020 | 35 | 106 | 2.0 | 6.0 | 0.00 | 0.24 | 0.24 | 97 | 1011.9 |
| 20260506031519 | 35 | 91 | 0.0 | 7.0 | 0.00 | 0.24 | 0.24 | 97 | 1011.8 |
| 20260506030015 | 35 | 105 | 4.0 | 12.0 | 0.00 | 0.24 | 0.24 | 97 | 1011.5 |
| 20260506024512 | 36 | 104 | 2.0 | 7.0 | 0.00 | 0.24 | 0.24 | 97 | 1011.3 |
| 20260506023009 | 35 | 103 | 4.0 | 9.0 | 0.00 | 0.24 | 0.24 | 97 | 1011.2 |
| 20260506021508 | 35 | 113 | 4.0 | 8.0 | 0.00 | 0.24 | 0.24 | 97 | 1011.0 |
| 20260506020005 | 35 | 109 | 3.0 | 9.0 | 0.00 | 0.24 | 0.24 | 97 | 1010.8 |
| 20260506014503 | 36 | 96 | 3.0 | 8.0 | 0.00 | 0.24 | 0.24 | 97 | 1010.6 |
| 20260506013002 | 36 | 101 | 2.0 | 8.0 | 0.00 | 0.24 | 0.24 | 97 | 1010.4 |
| 20260506011626 | 36 | 97 | 3.0 | 10.0 | 0.00 | 0.24 | 0.24 | 96 | 1010.4 |
| 20260506010103 | 36 | 108 | 2.0 | 9.0 | 0.00 | 0.24 | 0.24 | 96 | 1010.5 |
| 20260506004625 | 36 | 91 | 5.0 | 9.0 | 0.00 | 0.24 | 0.24 | 96 | 1010.3 |
| 20260506003108 | 36 | 105 | 2.0 | 10.0 | 0.00 | 0.24 | 0.24 | 96 | 1010.4 |
| 20260506001555 | 36 | 97 | 2.0 | 8.0 | 0.00 | 0.24 | 0.24 | 96 | 1010.5 |
| 20260506000048 | 36 | 115 | 4.0 | 10.0 | 0.00 | 0.24 | 0.24 | 96 | 1010.2 |
| 20260505234606 | 36 | 81 | 3.0 | 11.0 | 0.00 | 0.24 | 0.24 | 96 | 1010.2 |
| 20260505233045 | 36 | 114 | 3.0 | 7.0 | 0.00 | 0.24 | 0.24 | 96 | 1010.1 |
| 20260505231544 | 36 | 96 | 2.0 | 9.0 | 0.00 | 0.24 | 0.24 | 95 | 1010.1 |
| 20260505230043 | 36 | 84 | 1.0 | 7.0 | 0.00 | 0.24 | 0.24 | 95 | 1010.2 |
| 20260505224541 | 36 | 91 | 1.0 | 7.0 | 0.00 | 0.24 | 0.24 | 95 | 1010.2 |
| 20260505223036 | 36 | 105 | 3.0 | 8.0 | 0.00 | 0.24 | 0.24 | 94 | 1010.3 |
| 20260505221534 | 37 | 79 | 4.0 | 11.0 | 0.00 | 0.24 | 0.24 | 93 | 1010.2 |
| 20260505220043 | 37 | 95 | 1.0 | 8.0 | 0.00 | 0.24 | 0.24 | 92 | 1010.4 |
| 20260505214536 | 38 | 78 | 3.0 | 8.0 | 0.00 | 0.24 | 0.24 | 91 | 1010.4 |
| 20260505213026 | 37 | 67 | 0.0 | 4.0 | 0.00 | 0.24 | 0.24 | 93 | 1010.6 |
| 20260505211522 | 36 | 94 | 1.0 | 4.0 | 0.00 | 0.24 | 0.24 | 94 | 1010.9 |
| 20260505210019 | 35 | 96 | 0.0 | 6.0 | 0.00 | 0.24 | 0.24 | 94 | 1010.7 |
| 20260505204517 | 36 | 85 | 1.0 | 6.0 | 0.00 | 0.24 | 0.24 | 93 | 1010.7 |
| 20260505203014 | 36 | 101 | 3.0 | 9.0 | 0.00 | 0.24 | 0.24 | 91 | 1010.8 |
| 20260505201513 | 36 | 103 | 2.0 | 10.0 | 0.00 | 0.24 | 0.24 | 90 | 1010.6 |
| 20260505200006 | 36 | 108 | 3.0 | 7.0 | 0.00 | 0.24 | 0.24 | 93 | 1010.6 |
| 20260505194605 | 35 | 64 | 3.0 | 6.0 | 0.00 | 0.24 | 0.24 | 95 | 1010.9 |
| 20260505193005 | 35 | 84 | 3.0 | 7.0 | 0.00 | 0.24 | 0.24 | 95 | 1011.1 |
| 20260505191602 | 35 | 114 | 2.0 | 8.0 | 0.00 | 0.24 | 0.24 | 96 | 1011.0 |
| 20260505190057 | 34 | 103 | 3.0 | 7.0 | 0.00 | 0.24 | 0.24 | 95 | 1010.9 |
| 20260505184602 | 35 | 91 | 2.0 | 6.0 | 0.01 | 0.24 | 0.24 | 96 | 1010.8 |
| 20260505183053 | 34 | 77 | 2.0 | 7.0 | 0.01 | 0.24 | 0.24 | 96 | 1010.8 |
| 20260505181551 | 34 | 102 | 2.0 | 7.0 | 0.02 | 0.24 | 0.24 | 96 | 1010.5 |
| 20260505180053 | 34 | 106 | 3.0 | 9.0 | 0.03 | 0.24 | 0.24 | 96 | 1010.3 |
| 20260505174605 | 34 | 88 | 3.0 | 9.0 | 0.05 | 0.23 | 0.23 | 96 | 1009.9 |
| 20260505173043 | 34 | 82 | 4.0 | 10.0 | 0.05 | 0.23 | 0.23 | 96 | 1009.7 |
| 20260505171539 | 35 | 94 | 2.0 | 8.0 | 0.07 | 0.22 | 0.22 | 96 | 1009.5 |
| 20260505170046 | 34 | 89 | 1.0 | 9.0 | 0.06 | 0.21 | 0.21 | 96 | 1009.3 |
| 20260505164636 | 34 | 96 | 3.0 | 11.0 | 0.04 | 0.18 | 0.18 | 96 | 1009.2 |
| 20260505163038 | 34 | 122 | 4.0 | 10.0 | 0.04 | 0.18 | 0.18 | 95 | 1008.8 |
| 20260505161530 | 35 | 91 | 1.0 | 7.0 | 0.02 | 0.15 | 0.15 | 95 | 1008.6 |